| time (UTC) | temp F | wind direction | speed knots | gust knots | rain 1hr in | rain 24hr in | rain mn in | humidity % | barometer mb |
| 20260906230043 | 91 | 0.0 | 0.0 | 0.00 | 0.00 | 0.00 | 33 | 1016.4 | |
| 20260906224554 | 91 | 0.0 | 0.0 | 0.00 | 0.00 | 0.00 | 32 | 1016.4 | |
| 20260906223054 | 91 | 0.0 | 0.0 | 0.00 | 0.00 | 0.00 | 32 | 1016.5 | |
| 20260906221551 | 91 | 0.0 | 0.0 | 0.00 | 0.00 | 0.00 | 30 | 1016.8 | |
| 20260906220049 | 90 | 0.0 | 0.0 | 0.00 | 0.00 | 0.00 | 31 | 1017.0 | |
| 20260906214600 | 91 | 0.0 | 0.0 | 0.00 | 0.00 | 0.00 | 30 | 1017.2 | |
| 20260906213055 | 91 | 0.0 | 0.0 | 0.00 | 0.00 | 0.00 | 32 | 1017.4 | |
| 20260906211554 | 91 | 0.0 | 0.0 | 0.00 | 0.00 | 0.00 | 32 | 1017.6 | |
| 20260906210050 | 90 | 0.0 | 0.0 | 0.00 | 0.00 | 0.00 | 32 | 1017.8 | |
| 20260906204609 | 89 | 0.0 | 0.0 | 0.00 | 0.00 | 0.00 | 33 | 1018.2 | |
| 20260906203059 | 89 | 0.0 | 0.0 | 0.00 | 0.00 | 0.00 | 32 | 1018.4 | |
| 20260906201619 | 90 | 0.0 | 0.0 | 0.00 | 0.00 | 0.00 | 31 | 1018.5 | |
| 20260906200047 | 89 | 0.0 | 0.0 | 0.00 | 0.00 | 0.00 | 31 | 1018.7 | |
| 20260906194556 | 88 | 0.0 | 0.0 | 0.00 | 0.00 | 0.00 | 34 | 1018.9 | |
| 20260906193133 | 88 | 0.0 | 0.0 | 0.00 | 0.00 | 0.00 | 37 | 1019.3 | |
| 20260906193059 | 88 | 0.0 | 0.0 | 0.00 | 0.00 | 0.00 | 37 | 1019.3 | |
| 20260906191547 | 86 | 0.0 | 0.0 | 0.00 | 0.00 | 0.00 | 36 | 1019.7 | |
| 20260906190054 | 85 | 0.0 | 0.0 | 0.00 | 0.00 | 0.00 | 37 | 1019.8 | |
| 20260906184554 | 86 | 0.0 | 0.0 | 0.00 | 0.00 | 0.00 | 36 | 1020.0 | |
| 20260906183049 | 84 | 0.0 | 0.0 | 0.00 | 0.00 | 0.00 | 40 | 1020.2 | |
| 20260906181553 | 83 | 0.0 | 0.0 | 0.00 | 0.00 | 0.00 | 38 | 1020.6 | |
| 20260906180105 | 82 | 0.0 | 0.0 | 0.00 | 0.00 | 0.00 | 40 | 1020.8 | |
| 20260906174633 | 80 | 0.0 | 0.0 | 0.00 | 0.00 | 0.00 | 41 | 1021.1 | |
| 20260906174551 | 80 | 0.0 | 0.0 | 0.00 | 0.00 | 0.00 | 41 | 1021.1 | |
| 20260906173048 | 79 | 0.0 | 0.0 | 0.00 | 0.00 | 0.00 | 44 | 1021.5 | |
| 20260906171559 | 77 | 0.0 | 0.0 | 0.00 | 0.00 | 0.00 | 46 | 1021.8 | |
| 20260906170107 | 77 | 0.0 | 0.0 | 0.00 | 0.00 | 0.00 | 45 | 1022.0 | |
| 20260906164552 | 76 | 0.0 | 0.0 | 0.00 | 0.00 | 0.00 | 45 | 1022.2 | |
| 20260906163056 | 73 | 0.0 | 0.0 | 0.00 | 0.00 | 0.00 | 52 | 1022.2 | |
| 20260906161553 | 72 | 0.0 | 0.0 | 0.00 | 0.00 | 0.00 | 53 | 1022.2 | |
| 20260906160055 | 71 | 0.0 | 0.0 | 0.00 | 0.00 | 0.00 | 55 | 1022.2 | |
| 20260906154548 | 69 | 0.0 | 0.0 | 0.00 | 0.00 | 0.00 | 58 | 1022.2 | |
| 20260906153043 | 68 | 0.0 | 0.0 | 0.00 | 0.00 | 0.00 | 59 | 1022.1 | |
| 20260906151552 | 67 | 0.0 | 0.0 | 0.00 | 0.00 | 0.00 | 61 | 1022.3 | |
| 20260906150106 | 65 | 0.0 | 0.0 | 0.00 | 0.00 | 0.00 | 64 | 1022.3 | |
| 20260906144557 | 64 | 0.0 | 0.0 | 0.00 | 0.00 | 0.00 | 66 | 1022.3 | |
| 20260906143131 | 63 | 0.0 | 0.0 | 0.00 | 0.00 | 0.00 | 66 | 1022.4 | |
| 20260906143056 | 63 | 0.0 | 0.0 | 0.00 | 0.00 | 0.00 | 66 | 1022.4 | |
| 20260906141551 | 63 | 0.0 | 0.0 | 0.00 | 0.00 | 0.00 | 67 | 1022.3 | |
| 20260906140147 | 62 | 0.0 | 0.0 | 0.00 | 0.00 | 0.00 | 68 | 1022.3 | |
| 20260906140055 | 62 | 0.0 | 0.0 | 0.00 | 0.00 | 0.00 | 68 | 1022.3 | |
| 20260906134543 | 61 | 0.0 | 0.0 | 0.00 | 0.00 | 0.00 | 69 | 1022.4 | |
| 20260906133112 | 60 | 0.0 | 0.0 | 0.00 | 0.00 | 0.00 | 71 | 1022.3 | |
| 20260906131550 | 60 | 0.0 | 0.0 | 0.00 | 0.00 | 0.00 | 71 | 1022.1 | |
| 20260906130104 | 60 | 0.0 | 0.0 | 0.00 | 0.00 | 0.00 | 69 | 1021.7 | |
| 20260906124550 | 60 | 0.0 | 0.0 | 0.00 | 0.00 | 0.00 | 67 | 1021.5 | |
| 20260906123054 | 60 | 0.0 | 0.0 | 0.00 | 0.00 | 0.00 | 68 | 1021.5 | |
| 20260906121549 | 60 | 0.0 | 0.0 | 0.00 | 0.00 | 0.00 | 68 | 1021.6 | |
| 20260906120046 | 61 | 0.0 | 0.0 | 0.00 | 0.00 | 0.00 | 66 | 1021.8 | |
| 20260906114553 | 61 | 0.0 | 0.0 | 0.00 | 0.00 | 0.00 | 67 | 1021.9 | |
| 20260906113051 | 62 | 0.0 | 0.0 | 0.00 | 0.00 | 0.00 | 68 | 1021.8 | |
| 20260906111606 | 62 | 0.0 | 0.0 | 0.00 | 0.00 | 0.00 | 64 | 1021.5 | |
| 20260906110056 | 62 | 0.0 | 0.0 | 0.00 | 0.00 | 0.00 | 63 | 1021.2 | |
| 20260906104552 | 63 | 0.0 | 0.0 | 0.00 | 0.00 | 0.00 | 63 | 1021.1 | |
| 20260906103056 | 63 | 0.0 | 0.0 | 0.00 | 0.00 | 0.00 | 61 | 1021.1 | |
| 20260906101549 | 63 | 0.0 | 0.0 | 0.00 | 0.00 | 0.00 | 62 | 1021.2 | |
| 20260906100309 | 64 | 0.0 | 0.0 | 0.00 | 0.00 | 0.00 | 61 | 1021.1 | |
| 20260906094551 | 64 | 0.0 | 0.0 | 0.00 | 0.00 | 0.00 | 60 | 1021.1 | |
| 20260906093051 | 64 | 0.0 | 0.0 | 0.00 | 0.00 | 0.00 | 60 | 1021.1 | |
| 20260906091548 | 64 | 0.0 | 0.0 | 0.00 | 0.00 | 0.00 | 60 | 1021.0 | |
| 20260906090052 | 64 | 0.0 | 0.0 | 0.00 | 0.00 | 0.00 | 59 | 1020.8 | |
| 20260906084552 | 65 | 0.0 | 0.0 | 0.00 | 0.00 | 0.00 | 58 | 1020.8 | |
| 20260906083052 | 66 | 0.0 | 0.0 | 0.00 | 0.00 | 0.00 | 56 | 1020.8 | |
| 20260906081547 | 67 | 0.0 | 0.0 | 0.00 | 0.00 | 0.00 | 55 | 1020.8 | |
| 20260906080046 | 68 | 0.0 | 0.0 | 0.00 | 0.00 | 0.00 | 51 | 1020.6 | |
| 20260906074554 | 68 | 0.0 | 0.0 | 0.00 | 0.00 | 0.00 | 49 | 1020.7 | |
| 20260906073054 | 69 | 0.0 | 0.0 | 0.00 | 0.00 | 0.00 | 51 | 1020.6 | |
| 20260906071551 | 69 | 0.0 | 0.0 | 0.00 | 0.00 | 0.00 | 50 | 1020.5 | |
| 20260906070044 | 69 | 0.0 | 0.0 | 0.00 | 0.00 | 0.00 | 50 | 1020.4 | |
| 20260906064553 | 70 | 0.0 | 0.0 | 0.00 | 0.00 | 0.00 | 50 | 1020.6 | |
| 20260906063054 | 70 | 0.0 | 0.0 | 0.00 | 0.00 | 0.00 | 49 | 1020.6 | |
| 20260906061552 | 70 | 0.0 | 0.0 | 0.00 | 0.00 | 0.00 | 50 | 1021.0 | |
| 20260906060052 | 70 | 0.0 | 0.0 | 0.00 | 0.00 | 0.00 | 49 | 1021.3 | |
| 20260906054559 | 71 | 0.0 | 0.0 | 0.00 | 0.00 | 0.00 | 49 | 1021.2 | |
| 20260906053059 | 71 | 0.0 | 0.0 | 0.00 | 0.00 | 0.00 | 48 | 1021.2 | |
| 20260906051608 | 72 | 0.0 | 0.0 | 0.00 | 0.00 | 0.00 | 48 | 1021.3 | |
| 20260906050047 | 72 | 0.0 | 0.0 | 0.00 | 0.00 | 0.00 | 49 | 1021.3 | |
| 20260906044552 | 76 | 0.0 | 0.0 | 0.00 | 0.00 | 0.00 | 45 | 1021.7 | |
| 20260906043053 | 75 | 0.0 | 0.0 | 0.00 | 0.00 | 0.00 | 35 | 1021.7 | |
| 20260906041551 | 74 | 0.0 | 0.0 | 0.00 | 0.00 | 0.00 | 37 | 1021.5 | |
| 20260906040123 | 73 | 0.0 | 0.0 | 0.00 | 0.00 | 0.00 | 38 | 1021.2 | |
| 20260906034604 | 74 | 0.0 | 0.0 | 0.00 | 0.00 | 0.00 | 38 | 1020.2 | |
| 20260906033104 | 74 | 0.0 | 0.0 | 0.00 | 0.00 | 0.00 | 37 | 1019.9 | |
| 20260906031545 | 75 | 0.0 | 0.0 | 0.00 | 0.00 | 0.00 | 35 | 1019.9 | |
| 20260906030054 | 76 | 0.0 | 0.0 | 0.00 | 0.00 | 0.00 | 34 | 1019.6 | |
| 20260906024609 | 76 | 0.0 | 0.0 | 0.00 | 0.00 | 0.00 | 33 | 1019.5 | |
| 20260906023045 | 76 | 0.0 | 0.0 | 0.00 | 0.00 | 0.00 | 33 | 1019.3 | |
| 20260906021554 | 77 | 0.0 | 0.0 | 0.00 | 0.00 | 0.00 | 34 | 1019.4 | |
| 20260906020050 | 78 | 0.0 | 0.0 | 0.00 | 0.00 | 0.00 | 33 | 1019.3 | |
| 20260906014551 | 80 | 0.0 | 0.0 | 0.00 | 0.00 | 0.00 | 31 | 1019.1 | |
| 20260906013112 | 81 | 0.0 | 0.0 | 0.00 | 0.00 | 0.00 | 31 | 1018.8 | |
| 20260906011550 | 82 | 0.0 | 0.0 | 0.00 | 0.00 | 0.00 | 30 | 1018.7 | |
| 20260906010055 | 83 | 0.0 | 0.0 | 0.00 | 0.00 | 0.00 | 28 | 1018.6 | |
| 20260906004549 | 84 | 0.0 | 0.0 | 0.00 | 0.00 | 0.00 | 29 | 1018.7 | |
| 20260906003056 | 86 | 0.0 | 0.0 | 0.00 | 0.00 | 0.00 | 26 | 1018.9 | |
| 20260906001549 | 87 | 0.0 | 0.0 | 0.00 | 0.00 | 0.00 | 24 | 1018.7 | |
| 20260906000051 | 89 | 0.0 | 0.0 | 0.00 | 0.00 | 0.00 | 24 | 1018.5 | |
| 20260905234548 | 90 | 0.0 | 0.0 | 0.00 | 0.00 | 0.00 | 23 | 1018.4 | |
| 20260905233058 | 90 | 0.0 | 0.0 | 0.00 | 0.00 | 0.00 | 22 | 1018.4 | |
| 20260905231548 | 91 | 0.0 | 0.0 | 0.00 | 0.00 | 0.00 | 22 | 1018.5 |